CDT,Max TemperatureF,Mean TemperatureF,Min TemperatureF,Max Dew PointF,MeanDew PointF,Min DewpointF,Max Humidity, Mean Humidity, Min Humidity, Max Sea Level PressureIn, Mean Sea Level PressureIn, Min Sea Level PressureIn, Max VisibilityMiles, Mean VisibilityMiles, Min VisibilityMiles, Max Wind SpeedMPH, Mean Wind SpeedMPH, Max Gust SpeedMPH,PrecipitationIn, CloudCover, Events, WindDirDegrees
2013-3-1,63,54,46,36,32,26,62,42,28,30.19,30.13,30.06,10,10,10,15,9,25,0.00,4,,306
2013-3-2,55,47,38,28,23,18,45,37,31,30.27,30.21,30.15,10,9,8,18,9,23,0.00,3,,359
2013-3-3,58,46,35,32,28,22,86,50,31,30.31,30.25,30.19,10,10,10,10,4,,0.00,0,,328
2013-3-4,70,58,47,54,47,36,86,61,49,30.17,30.08,29.99,10,9,3,20,10,29,0.00,4,Fog,165
2013-3-5,77,70,61,62,53,36,77,57,33,30.22,30.05,29.98,10,9,6,18,11,25,0.00,6,,288
2013-3-6,65,56,47,37,28,23,47,35,23,30.35,30.28,30.22,10,10,10,13,10,21,0.00,1,,354
2013-3-7,63,52,42,42,36,32,68,48,36,30.37,30.30,30.25,10,8,6,12,6,15,0.00,3,,97
2013-3-8,69,56,44,46,41,36,71,51,37,30.32,30.26,30.20,10,6,2,12,6,,0.00,6,,127
2013-3-9,72,61,50,56,52,48,100,68,52,30.19,30.10,29.97,10,9,6,16,6,21,0.00,7,,122
2013-3-10,,,,,,,,,,30.01,29.94,29.91,,,,,,,0.00,,,-1
2013-3-11,57,52,48,50,41,34,82,66,44,30.04,29.96,29.88,10,8,3,13,10,23,0.00,5,Rain,335
2013-3-12,66,58,49,40,36,32,61,45,32,30.23,30.14,30.06,10,10,10,10,6,15,0.00,3,,11
2013-3-13,69,59,49,39,32,24,69,36,23,30.40,30.33,30.23,10,10,7,15,6,20,0.00,1,,357
2013-3-14,63,55,47,36,32,28,54,40,30,30.47,30.39,30.33,10,10,8,14,9,,0.00,0,,99
2013-3-15,73,60,46,48,45,43,88,55,35,30.33,30.26,30.17,10,10,10,13,6,,0.00,0,Fog,215
2013-3-16,77,67,57,56,53,47,73,55,41,30.17,30.07,30.00,10,9,6,17,8,,0.00,2,Fog,214
2013-3-17,,,,,,,,,,30.01,29.94,29.88,,,,,,,0.00,,,-1
2013-3-18,82,75,68,68,65,63,86,71,53,29.92,29.87,29.78,10,7,2,15,7,,0.00,5,Fog,220
2013-3-19,73,67,61,58,55,46,75,64,53,30.04,29.99,29.91,10,10,8,15,11,,0.00,3,,84
2013-3-20,70,64,58,46,38,32,56,40,24,30.17,30.06,29.97,10,10,7,17,11,,0.00,4,Rain,21
2013-3-21,66,58,51,44,39,32,65,46,34,30.08,30.00,29.89,10,10,8,8,4,,0.00,5,,123
2013-3-22,76,69,62,66,62,54,79,74,69,29.91,29.84,29.79,10,10,10,12,7,17,0.00,7,,160
2013-3-23,78,72,66,71,67,61,94,82,65,29.83,29.71,29.60,8,4,0,12,7,,0.00,8,Fog-Rain,129
2013-3-24,73,68,60,70,54,32,91,62,31,30.01,29.78,29.62,10,10,8,20,11,29,0.00,2,,336
2013-3-25,56,50,43,28,25,20,51,38,25,30.25,30.15,30.04,10,10,8,18,12,28,0.00,0,,354
2013-3-26,55,48,42,32,24,19,61,38,27,30.41,30.35,30.28,10,10,10,16,9,,0.00,0,,347
2013-3-27,61,50,40,40,34,26,60,47,31,30.46,30.38,30.31,10,10,10,9,7,,0.00,2,,99
2013-3-28,68,56,44,48,42,21,72,51,34,30.38,30.33,30.28,10,9,7,12,4,,0.00,2,Fog,127
2013-3-29,72,61,50,54,50,39,73,60,43,30.35,30.28,30.22,10,9,3,9,5,,0.00,3,Fog,182
2013-3-30,76,68,60,58,56,47,74,61,47,30.21,30.13,30.06,10,10,8,15,6,,0.00,6,,179
2013-3-31,80,70,60,65,59,52,94,72,47,30.04,29.99,29.93,10,8,0,21,7,29,0.00,6,Fog-Rain-Thunderstorm,235